When you browse on this site, cookies collect data to enhance your experience and personalize the content and advertising you see.
Visit our Privacy Policy to learn more. By continuing to use the site, you agree to this use of cookies and data.
  • En España
  • Lista de países
  • Para 7 días
  • Temperatura del agua
  • Mapa Satelital
  • El tiempo en el mapa
  • Informadores
  • user-avatar
    Iniciar sesión

    Tiempo cada hora Mopti

    Hoy, 18 Junio, Martes

    Tiempo Temperatura Precipitaciones Viento Presión Humedad
    00:00 +40°C° 0 mm 3 mps 735 mmHg 25%
    01:00 +39°C° 0 mm 3 mps 734 mmHg 27%
    02:00 +38°C° 0 mm 4 mps 734 mmHg 28%
    03:00 +38°C° 0 mm 4 mps 734 mmHg 30%
    04:00 +37°C° 0 mm 4 mps 734 mmHg 31%
    05:00 +37°C° 0 mm 3 mps 734 mmHg 32%
    06:00 +36°C° 0 mm 3 mps 735 mmHg 33%
    07:00 +37°C° 0 mm 4 mps 735 mmHg 32%
    08:00 +40°C° 0 mm 5 mps 736 mmHg 31%
    09:00 +41°C° 0 mm 6 mps 736 mmHg 30%
    10:00 +42°C° 0 mm 5 mps 736 mmHg 26%
    11:00 +43°C° 0 mm 4 mps 736 mmHg 23%
    12:00 +44°C° 0 mm 3 mps 735 mmHg 20%
    13:00 +45°C° 0 mm 2 mps 735 mmHg 18%
    14:00 +46°C° 0 mm 2 mps 734 mmHg 16%
    15:00 +45°C° 0 mm 1 mps 734 mmHg 15%
    16:00 +45°C° 0 mm 1 mps 734 mmHg 15%
    17:00 +46°C° 0 mm 2 mps 733 mmHg 15%
    18:00 +46°C° 0 mm 2 mps 733 mmHg 15%
    19:00 +45°C° 0 mm 2 mps 734 mmHg 17%
    20:00 +43°C° 0 mm 2 mps 734 mmHg 18%
    21:00 +42°C° 0 mm 2 mps 735 mmHg 20%
    22:00 +41°C° 0 mm 2 mps 735 mmHg 22%
    23:00 +40°C° 0 mm 2 mps 735 mmHg 23%

    Mañana, 19 Junio, Miércoles

    Tiempo Temperatura Precipitaciones Viento Presión Humedad
    00:00 +39°C° 0 mm 2 mps 735 mmHg 25%
    01:00 +39°C° 0 mm 2 mps 735 mmHg 26%
    02:00 +39°C° 0 mm 2 mps 734 mmHg 26%
    03:00 +38°C° 0 mm 2 mps 734 mmHg 27%
    04:00 +38°C° 0 mm 3 mps 734 mmHg 29%
    05:00 +37°C° 0 mm 5 mps 734 mmHg 30%
    06:00 +38°C° 0 mm 6 mps 734 mmHg 32%
    07:00 +38°C° 0 mm 7 mps 735 mmHg 34%
    08:00 +39°C° 0 mm 7 mps 735 mmHg 35%
    09:00 +39°C° 0 mm 8 mps 736 mmHg 37%
    10:00 +40°C° 0 mm 7 mps 736 mmHg 34%
    11:00 +42°C° 0 mm 6 mps 736 mmHg 31%
    12:00 +44°C° 0 mm 6 mps 736 mmHg 28%
    13:00 +45°C° 0 mm 5 mps 735 mmHg 26%
    14:00 +45°C° 0 mm 5 mps 734 mmHg 24%
    15:00 +45°C° 0 mm 4 mps 734 mmHg 22%
    16:00 +45°C° 0 mm 3 mps 733 mmHg 21%
    17:00 +45°C° 0 mm 3 mps 733 mmHg 20%
    18:00 +45°C° 0 mm 2 mps 733 mmHg 20%
    19:00 +43°C° 0.2 mm 3 mps 733 mmHg 23%
    20:00 +42°C° 0.2 mm 4 mps 734 mmHg 26%
    21:00 +40°C° 0.2 mm 5 mps 735 mmHg 29%
    22:00 +38°C° 0 mm 6 mps 735 mmHg 34%
    23:00 +35°C° 0 mm 7 mps 734 mmHg 40%

    Pasado mañana, 20 Junio, Jueves

    Tiempo Temperatura Precipitaciones Viento Presión Humedad
    00:00 +34°C° 0 mm 8 mps 734 mmHg 46%
    01:00 +33°C° 0 mm 7 mps 734 mmHg 46%
    02:00 +33°C° 0 mm 7 mps 734 mmHg 47%
    03:00 +33°C° 0 mm 6 mps 734 mmHg 48%
    04:00 +33°C° 0 mm 6 mps 734 mmHg 47%
    05:00 +33°C° 0 mm 5 mps 735 mmHg 47%
    06:00 +33°C° 0 mm 4 mps 735 mmHg 47%
    07:00 +34°C° 0 mm 5 mps 736 mmHg 43%
    08:00 +35°C° 0 mm 5 mps 736 mmHg 40%
    09:00 +36°C° 0 mm 5 mps 736 mmHg 37%
    10:00 +39°C° 0 mm 5 mps 736 mmHg 33%
    11:00 +41°C° 0 mm 5 mps 736 mmHg 29%
    12:00 +44°C° 0 mm 6 mps 736 mmHg 24%
    13:00 +45°C° 0 mm 5 mps 735 mmHg 22%
    14:00 +46°C° 0 mm 5 mps 734 mmHg 20%
    15:00 +47°C° 0 mm 5 mps 734 mmHg 18%
    16:00 +46°C° 0 mm 5 mps 733 mmHg 18%
    17:00 +45°C° 0 mm 4 mps 733 mmHg 17%
    18:00 +45°C° 0 mm 4 mps 733 mmHg 17%
    19:00 +44°C° 0 mm 4 mps 733 mmHg 18%
    20:00 +43°C° 0 mm 3 mps 734 mmHg 19%
    21:00 +41°C° 0 mm 2 mps 734 mmHg 20%
    22:00 +40°C° 0 mm 3 mps 734 mmHg 22%
    23:00 +41°C° 0 mm 4 mps 734 mmHg 24%

    21 Junio, Viernes

    Tiempo Temperatura Precipitaciones Viento Presión Humedad
    00:00 +40°C° 0 mm 5 mps 734 mmHg 26%
    01:00 +38°C° 0 mm 6 mps 734 mmHg 32%
    02:00 +36°C° 0 mm 7 mps 734 mmHg 38%
    03:00 +34°C° 0 mm 8 mps 734 mmHg 44%
    04:00 +34°C° 0 mm 7 mps 734 mmHg 43%
    05:00 +34°C° 0 mm 6 mps 734 mmHg 43%
    06:00 +33°C° 0 mm 5 mps 735 mmHg 43%
    07:00 +34°C° 0 mm 6 mps 735 mmHg 42%
    08:00 +36°C° 0 mm 6 mps 736 mmHg 40%
    09:00 +38°C° 0 mm 7 mps 736 mmHg 39%
    10:00 +39°C° 0 mm 7 mps 736 mmHg 34%
    11:00 +41°C° 0 mm 7 mps 736 mmHg 30%
    12:00 +44°C° 0 mm 7 mps 735 mmHg 25%
    13:00 +45°C° 0 mm 6 mps 735 mmHg 23%
    14:00 +46°C° 0 mm 5 mps 734 mmHg 20%
    15:00 +45°C° 0 mm 4 mps 733 mmHg 17%
    16:00 +45°C° 0 mm 4 mps 733 mmHg 16%
    17:00 +45°C° 0 mm 3 mps 733 mmHg 16%
    18:00 +45°C° 0 mm 3 mps 733 mmHg 15%
    19:00 +44°C° 0 mm 3 mps 734 mmHg 17%
    20:00 +43°C° 0 mm 3 mps 734 mmHg 18%
    21:00 +42°C° 0 mm 4 mps 735 mmHg 20%
    22:00 +41°C° 0 mm 4 mps 735 mmHg 26%
    23:00 +39°C° 0 mm 5 mps 735 mmHg 33%

    22 Junio, Sábado

    Tiempo Temperatura Precipitaciones Viento Presión Humedad
    00:00 +36°C° 0 mm 6 mps 734 mmHg 39%
    01:00 +36°C° 0 mm 6 mps 734 mmHg 40%
    02:00 +35°C° 0 mm 6 mps 734 mmHg 41%
    03:00 +35°C° 0 mm 5 mps 733 mmHg 42%
    04:00 +34°C° 0 mm 5 mps 734 mmHg 40%
    05:00 +34°C° 0 mm 4 mps 734 mmHg 39%
    06:00 +33°C° 0 mm 4 mps 734 mmHg 38%
    07:00 +35°C° 0 mm 4 mps 735 mmHg 35%
    08:00 +36°C° 0 mm 5 mps 735 mmHg 31%
    09:00 +38°C° 0 mm 6 mps 736 mmHg 28%
    10:00 +40°C° 0 mm 6 mps 736 mmHg 27%
    11:00 +42°C° 0 mm 6 mps 735 mmHg 26%
    12:00 +44°C° 0 mm 6 mps 735 mmHg 25%
    13:00 +45°C° 0 mm 5 mps 734 mmHg 21%
    14:00 +45°C° 0 mm 4 mps 734 mmHg 18%
    15:00 +46°C° 0 mm 3 mps 733 mmHg 15%
    16:00 +46°C° 0 mm 2 mps 733 mmHg 14%
    17:00 +45°C° 0 mm 1 mps 733 mmHg 14%
    18:00 +45°C° 0 mm 1 mps 732 mmHg 13%
    19:00 +44°C° 0 mm 1 mps 733 mmHg 15%
    20:00 +42°C° 0 mm 1 mps 733 mmHg 16%
    21:00 +41°C° 0 mm 1 mps 733 mmHg 18%
    22:00 +41°C° 0 mm 2 mps 733 mmHg 19%
    23:00 +40°C° 0 mm 3 mps 733 mmHg 21%

    23 Junio, Domingo

    Tiempo Temperatura Precipitaciones Viento Presión Humedad
    00:00 +40°C° 0 mm 4 mps 733 mmHg 22%
    01:00 +39°C° 0 mm 5 mps 733 mmHg 30%
    02:00 +36°C° 0 mm 6 mps 733 mmHg 38%
    03:00 +34°C° 0 mm 7 mps 732 mmHg 46%
    04:00 +34°C° 0 mm 6 mps 733 mmHg 46%
    05:00 +33°C° 0 mm 6 mps 733 mmHg 46%
    06:00 +33°C° 0 mm 5 mps 734 mmHg 46%
    07:00 +34°C° 0 mm 5 mps 734 mmHg 43%
    08:00 +35°C° 0 mm 6 mps 735 mmHg 40%
    09:00 +36°C° 0 mm 6 mps 735 mmHg 37%
    10:00 +39°C° 0 mm 6 mps 735 mmHg 33%
    11:00 +41°C° 0 mm 6 mps 735 mmHg 28%
    12:00 +44°C° 0 mm 6 mps 734 mmHg 24%
    13:00 +43°C° 0 mm 4 mps 734 mmHg 21%
    14:00 +44°C° 0 mm 3 mps 733 mmHg 19%
    15:00 +45°C° 0 mm 2 mps 732 mmHg 16%
    16:00 +45°C° 0 mm 2 mps 732 mmHg 16%
    17:00 +45°C° 0 mm 2 mps 732 mmHg 15%
    18:00 +45°C° 0 mm 2 mps 732 mmHg 14%
    19:00 +43°C° 0 mm 2 mps 732 mmHg 16%
    20:00 +43°C° 0 mm 3 mps 732 mmHg 18%
    21:00 +42°C° 0 mm 4 mps 733 mmHg 20%
    22:00 +41°C° 0 mm 4 mps 733 mmHg 22%
    23:00 +40°C° 0 mm 4 mps 733 mmHg 25%
    Mostrar más